Wind_Speed
10 11 11 11 12 12 12 12 12 12 12 13 13 12 10 8 7 6 5 6 7 9 13 10 9 6 8 8 9 8 8 8 8 8 8 7 6 5 5 5 7 6 4
11 11 11 11 11 11 11 11 11 11 12 14 14 13 12 11 10 9 8 8 11 9 6 14 18 14 11 11 11 10 7 5 5 6 7 7 6 5 5 4 5 7 6
11 12 11 11 11 11 10 10 10 11 11 13 14 15 15 14 14 12 12 11 12 10 11 12 9 7 6 6 8 7 7 7 4 3 5 7 8 7 6 6 5 5 6
11 12 12 11 10 11 11 10 11 11 12 13 14 15 16 16 16 15 12 12 12 12 11 11 10 13 13 12 9 7 8 7 5 5 3 6 5 7 9 9 8 8 9
10 11 11 11 10 10 9 9 10 10 11 12 13 13 14 14 15 15 13 12 13 16 14 11 13 12 12 9 11 8 9 10 10 8 6 6 4 5 6 9 9 11 11
10 12 12 11 11 10 8 9 9 10 10 10 11 12 11 11 11 11 12 14 16 17 16 16 17 14 9 13 13 14 11 9 10 11 10 8 6 5 5 9 11 13 14
11 11 11 11 11 9 9 10 10 11 12 12 10 9 9 9 10 10 10 11 11 12 14 20 22 22 20 21 14 11 13 12 12 5 11 13 12 11 12 12 12 17 12
11 10 10 10 10 10 11 11 11 11 11 12 10 8 5 6 8 8 8 8 9 10 11 12 14 16 20 22 21 23 23 20 19 18 13 10 6 13 16 19 20 23 17
11 12 12 12 11 11 11 11 11 11 11 11 9 6 4 4 6 8 8 8 8 8 9 9 10 12 13 14 15 19 24 25 26 27 23 23 21 23 16 13 15 18 19
13 13 12 12 12 12 12 12 11 12 11 11 11 10 7 3 3 3 8 9 8 8 8 8 8 9 10 10 10 11 13 15 17 19 20 22 21 18 29 31 31 29 24
13 13 12 12 12 12 12 12 12 12 12 12 12 11 11 9 8 6 4 8 9 8 8 8 8 9 9 9 9 9 9 11 12 9 1 1 1 2 16 29 30 29 30
14 13 13 12 12 12 11 11 11 11 11 11 11 11 10 8 8 8 6 8 8 8 7 6 7 8 9 9 9 9 9 11 10 10 1 3 2 8 13 16 16 21 31
14 13 13 12 11 10 10 9 9 9 9 9 9 9 9 9 9 9 9 9 10 10 9 8 7 6 7 7 7 8 8 10 11 13 12 7 13 12 10 10 11 12 14
11 11 11 11 10 10 9 8 7 7 7 7 7 7 6 6 7 7 7 9 8 9 10 9 9 9 8 7 7 7 7 8 9 11 13 15 14 13 10 10 12 13 15
13 13 12 11 11 10 9 8 7 6 5 5 5 5 4 5 5 5 6 9 9 8 10 10 10 10 9 9 8 8 7 8 8 10 11 12 13 13 12 11 11 12 12
12 13 13 12 11 10 9 8 7 7 6 5 4 4 4 4 4 5 6 7 8 9 7 9 11 11 10 10 11 12 13 13 13 14 13 13 13 13 14 14 13 12 13
13 13 13 12 12 10 8 6 4 3 4 4 4 4 4 4 4 5 6 6 7 8 8 9 10 11 12 13 14 16 17 16 15 14 13 14 14 14 14 13 12 13 12
14 14 15 13 11 7 3 5 7 9 6 5 5 4 3 3 4 4 5 6 6 6 7 8 10 11 13 14 15 15 14 14 14 13 12 13 13 13 13 13 12 10 15
15 15 12 9 6 9 12 10 8 7 6 5 4 3 3 4 5 6 7 7 8 8 8 8 10 10 12 13 13 13 13 12 13 12 12 12 13 13 13 14 14 13 18
13 12 11 13 12 9 9 9 8 6 5 4 3 4 5 6 7 8 9 10 9 10 10 10 11 11 12 12 13 13 12 12 12 12 12 13 13 14 15 16 16 17 18
11 11 11 11 10 9 8 8 8 8 6 6 7 7 8 9 9 9 10 9 10 10 10 10 11 12 12 12 11 12 14 14 13 13 12 12 14 14 15 17 18 18 19
9 9 9 11 10 9 9 8 8 7 7 8 9 10 10 10 10 11 12 12 12 13 13 14 14 14 14 14 14 13 14 15 16 13 13 12 12 13 14 16 17 19 20
9 10 10 12 11 9 9 8 7 9 10 12 12 12 12 12 13 14 15 16 17 15 16 16 17 15 17 15 15 16 17 18 19 16 16 19 15 13 12 13 16 18 20
7 8 11 12 10 9 10 10 10 13 15 15 15 15 16 15 16 17 18 19 19 19 19 20 24 23 24 22 21 19 16 15 15 13 17 20 19 22 21 20 19 20 22
7 9 11 14 13 11 11 13 15 16 16 16 17 18 19 19 18 19 19 21 20 20 19 19 20 20 20 18 16 16 19 22 16 16 18 25 23 23 24 24 22 22 19
9 9 12 13 12 13 15 15 15 16 18 19 19 19 19 20 20 17 18 20 22 20 19 18 16 17 17 18 21 23 24 24 24 25 20 21 22 23 28 28 26 26 26
Wind_Direction
232 211 201 197 196 195 192 192 190 191 194 197 189 190 192 199 190 206 225 213 195 163 153 132 120 147 140 148 157 168 162 175 175 171 168 166 158 153 145 147 160 170 152
234 212 205 201 202 203 204 203 201 199 199 200 205 193 184 191 194 183 192 204 190 198 172 137 129 127 118 118 127 139 150 175 189 184 190 192 194 192 180 172 174 189 184
231 217 210 203 201 202 205 209 211 210 207 202 200 200 193 190 195 192 193 194 205 210 208 221 225 193 159 130 107 144 154 180 163 174 204 218 214 216 220 208 198 193 197
230 216 212 208 202 199 201 205 210 209 205 203 204 202 200 195 194 197 198 203 196 195 199 207 234 201 168 93 110 175 230 231 216 222 188 212 212 222 225 220 206 205 200
233 219 213 211 210 206 202 202 209 208 210 206 205 205 205 209 214 215 208 211 216 221 227 229 216 232 241 218 116 163 207 232 235 215 206 229 233 225 206 218 218 223 220
231 220 218 212 214 208 205 209 208 210 208 207 205 206 211 216 219 221 223 227 225 221 218 223 227 225 216 205 178 233 219 219 246 222 237 241 226 179 219 211 208 222 228
227 221 212 208 211 202 204 210 212 206 204 202 202 202 205 212 217 222 224 226 231 235 236 236 233 231 232 241 240 242 243 221 220 191 203 187 227 241 215 182 224 220 226
221 219 215 208 210 208 208 210 213 213 208 207 209 208 207 220 227 224 226 228 227 228 231 234 237 237 238 241 247 249 251 252 254 254 246 244 221 224 231 230 230 250 244
213 216 215 212 209 211 212 211 211 211 218 216 218 210 206 214 213 231 233 236 235 235 235 234 233 236 240 241 241 243 249 255 257 261 262 258 257 256 246 241 242 241 254
209 214 211 209 207 209 212 213 215 216 216 219 224 229 237 246 211 211 230 234 239 239 239 240 240 240 241 242 241 238 240 243 243 246 249 248 246 244 249 252 256 259 261
206 210 210 208 206 207 209 211 215 220 224 228 232 236 240 245 244 243 241 229 233 236 236 236 239 242 246 250 251 250 242 239 241 234 32 61 130 211 246 246 244 250 256
205 202 203 202 200 202 205 209 214 219 224 228 230 234 236 237 238 234 235 217 213 217 224 228 230 235 239 244 251 258 255 249 246 245 46 29 292 259 258 263 264 257 253
199 198 197 196 195 195 197 200 205 209 212 217 223 230 234 237 240 238 238 213 206 208 216 226 234 240 248 252 255 256 253 250 252 250 250 273 280 291 287 276 271 268 263
197 195 194 191 190 189 188 189 193 196 197 203 206 211 217 222 226 228 229 217 202 211 221 229 235 243 249 254 259 261 260 261 259 261 263 269 281 286 281 275 272 273 274
190 188 185 184 180 178 174 174 176 178 177 182 189 195 201 206 214 221 221 220 221 222 227 235 239 248 254 262 267 270 274 275 274 274 276 278 281 283 282 275 270 273 279
184 181 178 173 169 165 160 156 156 158 162 167 175 187 198 208 215 222 227 229 231 233 226 234 240 251 258 266 274 280 285 288 287 284 279 274 274 277 283 285 286 280 276
178 175 171 164 156 153 151 154 173 191 206 215 219 224 230 234 238 238 240 242 242 241 235 235 242 248 256 266 276 285 289 291 290 286 281 275 271 272 274 280 282 283 286
175 174 167 165 162 169 217 269 271 268 244 228 220 221 226 236 249 257 259 258 257 252 248 244 249 257 268 277 282 285 289 291 288 284 279 276 275 272 271 268 269 281 279
174 171 176 188 233 266 269 254 227 213 210 205 207 222 242 260 268 273 275 274 273 272 269 265 265 268 275 282 285 290 290 287 288 287 286 283 280 275 269 269 266 268 276
181 183 207 239 253 239 219 198 191 196 205 221 244 265 275 278 276 275 276 277 277 277 276 276 278 281 284 289 290 289 284 287 287 288 287 283 280 278 278 277 276 278 279
212 232 246 234 215 200 188 188 197 207 220 248 264 276 280 278 275 272 270 272 272 272 274 277 281 286 288 289 287 291 294 294 290 293 287 276 274 277 278 280 281 282 283
237 239 229 220 207 196 203 209 213 219 231 251 271 278 277 274 273 271 269 268 269 268 269 277 282 283 281 281 287 291 294 298 304 299 296 281 284 280 277 276 279 281 285
241 242 221 201 191 203 208 212 225 247 260 273 276 277 278 278 276 275 271 266 262 259 263 272 269 270 274 280 282 285 290 290 290 291 291 293 294 296 293 286 287 293 294
230 210 210 199 206 215 220 226 243 261 271 275 278 281 280 279 279 278 276 272 270 266 263 262 266 269 272 277 280 285 284 284 287 283 291 294 296 298 294 292 293 293 293
239 227 227 218 214 229 237 255 262 266 269 273 275 276 280 282 281 278 277 277 277 273 270 267 265 268 274 279 281 285 281 280 282 286 287 297 300 301 300 299 299 299 299
244 224 224 222 227 244 262 263 264 268 271 274 276 279 281 283 283 279 277 280 280 276 273 267 262 261 264 261 251 249 258 268 279 286 289 290 298 306 307 306 306 306 301
Height
1544 1546 1548 1550 1552 1554 1557 1559 1561 1563 1565 1567 1570 1572 1573 1575 1577 1579 1581 1585 1585 1584 1586 1586 1589 1590 1591 1592 1591 1593 1594 1596 1597 1598 1599 1602 1602 1603 1604 1605 1607 1608 1608
1543 1545 1548 1550 1552 1554 1556 1558 1560 1563 1565 1566 1568 1570 1572 1575 1577 1580 1582 1584 1586 1586 1589 1589 1589 1590 1592 1592 1592 1593 1594 1596 1598 1599 1600 1601 1602 1604 1605 1606 1607 1608 1609
1542 1544 1546 1549 1551 1553 1555 1557 1559 1561 1563 1566 1568 1569 1572 1574 1577 1578 1580 1583 1586 1586 1587 1591 1590 1592 1593 1594 1593 1593 1594 1596 1598 1600 1600 1601 1601 1603 1605 1605 1606 1608 1609
1541 1543 1545 1547 1550 1552 1554 1556 1558 1561 1562 1564 1566 1568 1570 1573 1575 1578 1579 1583 1583 1584 1587 1589 1591 1592 1593 1592 1592 1592 1594 1596 1598 1600 1600 1600 1601 1601 1603 1604 1605 1606 1608
1539 1541 1544 1546 1548 1551 1553 1555 1557 1560 1562 1564 1565 1567 1569 1571 1574 1576 1578 1579 1582 1584 1586 1588 1590 1592 1591 1591 1592 1593 1594 1597 1598 1599 1599 1599 1600 1600 1601 1603 1605 1605 1605
1537 1540 1542 1544 1547 1549 1551 1554 1556 1559 1561 1563 1565 1566 1568 1569 1571 1573 1574 1576 1579 1582 1583 1587 1590 1592 1591 1591 1590 1592 1595 1596 1596 1599 1598 1598 1600 1599 1600 1602 1603 1605 1604
1536 1538 1541 1543 1546 1548 1550 1553 1555 1558 1559 1561 1564 1565 1567 1568 1570 1571 1573 1575 1576 1577 1579 1582 1585 1588 1588 1589 1590 1593 1594 1594 1596 1597 1597 1597 1597 1598 1599 1600 1601 1602 1603
1535 1537 1540 1542 1544 1547 1549 1552 1554 1557 1559 1561 1563 1565 1567 1569 1569 1570 1572 1573 1575 1576 1577 1579 1580 1582 1584 1586 1587 1591 1591 1593 1594 1595 1597 1597 1595 1595 1597 1598 1599 1600 1600
1533 1536 1538 1541 1543 1546 1548 1551 1553 1556 1558 1560 1562 1565 1565 1566 1567 1569 1570 1571 1573 1574 1575 1576 1578 1580 1581 1581 1584 1586 1587 1588 1590 1591 1592 1594 1593 1593 1596 1596 1597 1597 1598
1531 1534 1537 1539 1542 1544 1547 1549 1552 1554 1556 1559 1561 1563 1564 1565 1566 1568 1569 1570 1571 1573 1574 1575 1577 1578 1578 1580 1581 1583 1583 1584 1585 1586 1587 1588 1588 1589 1591 1593 1594 1594 1595
1529 1532 1536 1538 1540 1543 1546 1548 1550 1552 1555 1557 1559 1561 1563 1564 1565 1567 1567 1568 1570 1571 1573 1574 1576 1577 1578 1579 1579 1580 1580 1581 1582 1583 1583 1584 1585 1585 1584 1586 1587 1588 1589
1529 1531 1534 1537 1539 1542 1544 1547 1549 1551 1553 1555 1557 1558 1560 1562 1563 1565 1566 1567 1569 1571 1572 1574 1576 1576 1577 1577 1578 1578 1579 1580 1580 1580 1581 1581 1580 1579 1580 1581 1580 1581 1582
1528 1530 1533 1536 1539 1541 1543 1546 1548 1550 1552 1554 1555 1557 1558 1560 1561 1563 1564 1565 1567 1570 1571 1572 1573 1574 1575 1576 1577 1577 1577 1577 1578 1577 1577 1577 1576 1577 1577 1577 1577 1577 1577
1527 1530 1533 1536 1538 1541 1543 1545 1547 1549 1551 1553 1554 1556 1557 1558 1560 1561 1562 1564 1566 1567 1569 1570 1571 1572 1573 1574 1575 1575 1575 1575 1575 1575 1575 1574 1574 1575 1575 1576 1575 1574 1574
1526 1528 1532 1535 1538 1541 1543 1545 1547 1550 1551 1553 1554 1555 1556 1557 1558 1560 1561 1562 1564 1565 1567 1568 1569 1571 1572 1572 1573 1574 1574 1574 1573 1573 1573 1573 1572 1573 1572 1573 1572 1571 1571
1526 1528 1531 1534 1538 1541 1542 1545 1547 1549 1551 1552 1554 1555 1556 1557 1558 1559 1560 1561 1562 1564 1565 1566 1567 1568 1569 1570 1571 1571 1571 1571 1571 1571 1572 1571 1570 1570 1570 1569 1569 1569 1569
1526 1529 1532 1535 1537 1541 1543 1545 1547 1549 1550 1552 1553 1554 1555 1556 1558 1558 1559 1560 1561 1562 1564 1565 1566 1566 1567 1568 1569 1569 1568 1568 1568 1568 1568 1568 1567 1567 1567 1566 1566 1566 1565
1526 1529 1532 1535 1538 1540 1543 1544 1546 1548 1549 1550 1552 1553 1554 1555 1556 1557 1558 1559 1560 1561 1562 1563 1564 1565 1566 1565 1565 1566 1566 1565 1565 1564 1564 1564 1564 1563 1563 1563 1563 1563 1562
1526 1530 1533 1535 1537 1539 1541 1543 1544 1547 1548 1550 1551 1552 1553 1554 1555 1556 1557 1558 1558 1559 1560 1561 1562 1562 1562 1562 1562 1562 1562 1562 1561 1561 1561 1561 1561 1560 1560 1560 1560 1559 1558
1527 1530 1532 1534 1535 1537 1539 1541 1544 1546 1548 1549 1550 1551 1552 1553 1554 1554 1555 1556 1557 1557 1558 1558 1559 1559 1560 1559 1558 1558 1558 1558 1558 1558 1558 1557 1557 1557 1557 1557 1556 1555 1554
1527 1529 1531 1532 1534 1536 1538 1540 1542 1544 1546 1548 1549 1549 1550 1551 1551 1552 1553 1554 1554 1555 1555 1556 1556 1556 1557 1556 1555 1555 1555 1555 1555 1554 1553 1553 1553 1553 1553 1553 1552 1551 1550
1525 1527 1529 1530 1532 1535 1538 1539 1540 1542 1544 1546 1546 1547 1547 1548 1548 1549 1550 1550 1552 1552 1552 1552 1552 1552 1553 1553 1553 1551 1551 1551 1551 1550 1548 1549 1548 1549 1549 1548 1548 1546 1546
1524 1525 1526 1528 1531 1534 1536 1537 1539 1540 1541 1542 1543 1543 1544 1545 1545 1545 1546 1547 1548 1548 1548 1548 1548 1549 1548 1549 1548 1549 1549 1548 1547 1547 1544 1544 1545 1544 1544 1544 1543 1542 1541
1522 1523 1525 1527 1530 1532 1533 1535 1537 1537 1538 1539 1539 1540 1541 1541 1541 1540 1541 1542 1542 1543 1543 1543 1542 1544 1543 1544 1545 1545 1545 1543 1543 1543 1541 1538 1540 1539 1539 1538 1538 1536 1535
1520 1522 1524 1525 1527 1529 1531 1533 1533 1534 1534 1535 1535 1536 1536 1536 1536 1536 1535 1535 1536 1537 1538 1537 1537 1538 1538 1539 1540 1540 1539 1539 1538 1537 1538 1535 1536 1533 1532 1531 1531 1529 1528
1518 1520 1521 1523 1525 1527 1528 1529 1529 1529 1530 1530 1531 1531 1531 1530 1530 1531 1531 1530 1530 1531 1531 1531 1531 1532 1533 1533 1534 1535 1534 1534 1534 1531 1533 1532 1529 1529 1524 1523 1523 1523 1521